Coll Airport


Codes: EGEL/COL
Name: Coll Airport
City: Coll Island
Country: United Kingdom
Elevation: 21 ft.

Photos at Coll Airport


   Photos courtesy of SpottingLog. You can add your own sightings and photos by signing up for a free trial today.



No photos found.

Weather at Coll Airport


Time (UTC)DescriptionTempratureWindCloud coverageVisibilityPressureHumidity
23-May-2024 21:00Overcast Clouds10°C27 mph, N100%10000m1016hPa86%
24-May-2024 00:00Overcast Clouds10°C22 mph, N100%10000m1016hPa88%
24-May-2024 03:00Light Rain10°C20 mph, N100%10000m1015hPa90%
24-May-2024 06:00Overcast Clouds10°C16 mph, N99%10000m1014hPa90%
24-May-2024 09:00Overcast Clouds10°C9 mph, N95%10000m1015hPa89%
24-May-2024 12:00Overcast Clouds10°C2 mph, NW98%10000m1016hPa88%
24-May-2024 15:00Overcast Clouds11°C7 mph, S100%10000m1016hPa88%
24-May-2024 18:00Overcast Clouds11°C7 mph, S100%10000m1017hPa88%
24-May-2024 21:00Overcast Clouds11°C7 mph, S100%10000m1017hPa90%
25-May-2024 00:00Overcast Clouds11°C11 mph, S100%10000m1017hPa92%
25-May-2024 03:00Overcast Clouds11°C16 mph, SE100%10000m1017hPa91%
25-May-2024 06:00Overcast Clouds11°C20 mph, SE100%10000m1017hPa88%
25-May-2024 09:00Broken Clouds11°C20 mph, SE76%10000m1017hPa88%
25-May-2024 12:00Broken Clouds12°C18 mph, S62%10000m1016hPa84%
25-May-2024 15:00Clear Sky12°C11 mph, SE3%10000m1014hPa79%
25-May-2024 18:00Clear Sky12°C11 mph, SE2%10000m1013hPa80%
25-May-2024 21:00Clear Sky12°C11 mph, SE1%10000m1013hPa80%
26-May-2024 00:00Few Clouds12°C7 mph, E15%10000m1011hPa82%
26-May-2024 03:00Light Rain12°C9 mph, SE92%10000m1010hPa89%
26-May-2024 06:00Light Rain12°C7 mph, SE96%10000m1009hPa86%
26-May-2024 09:00Light Rain12°C13 mph, SE100%10000m1009hPa83%
26-May-2024 12:00Light Rain12°C13 mph, SE99%10000m1008hPa85%
26-May-2024 15:00Light Rain12°C11 mph, SE89%10000m1007hPa89%
26-May-2024 18:00Light Rain12°C13 mph, SE95%10000m1007hPa88%
26-May-2024 21:00Light Rain12°C9 mph, SE72%10000m1007hPa93%
27-May-2024 00:00Light Rain12°C7 mph, S82%10000m1008hPa91%
27-May-2024 03:00Overcast Clouds12°C9 mph, SE92%10000m1008hPa88%
27-May-2024 06:00Overcast Clouds12°C11 mph, SE96%10000m1009hPa88%
27-May-2024 09:00Overcast Clouds11°C16 mph, S100%10000m1010hPa92%
27-May-2024 12:00Overcast Clouds11°C11 mph, S100%10000m1010hPa93%
27-May-2024 15:00Broken Clouds12°C13 mph, SW81%10000m1011hPa90%
27-May-2024 18:00Broken Clouds12°C11 mph, SW71%10000m1012hPa89%
27-May-2024 21:00Few Clouds11°C9 mph, S14%10000m1012hPa89%
28-May-2024 00:00Few Clouds11°C13 mph, S15%10000m1011hPa90%
28-May-2024 03:00Broken Clouds11°C16 mph, SE79%10000m1009hPa87%
28-May-2024 06:00Overcast Clouds11°C22 mph, SE89%10000m1008hPa84%
28-May-2024 09:00Light Rain11°C27 mph, SE100%10000m1007hPa88%
28-May-2024 12:00Light Rain11°C27 mph, SE100%10000m1006hPa90%
28-May-2024 15:00Light Rain11°C25 mph, SE100%10000m1005hPa91%
28-May-2024 18:00Light Rain11°C20 mph, SE100%10000m1005hPa92%